Change the Weather History Date:

Friday, November 15, 2013

  Actual Average Record
Temperature  
Mean Temperature 34 °F -  
Max Temperature 39 °F 45 °F 67 °F (1990)
Min Temperature 28 °F 24 °F 2 °F (1978)
Degree Days  
Heating Degree Days 30    
Moisture  
Dew Point 32 °F    
Average Humidity 90    
Maximum Humidity 100    
Minimum Humidity 67    
Precipitation  
Precipitation 0.33 in - - ()
Sea Level Pressure  
Sea Level Pressure 29.77 in    
Wind  
Wind Speed 5 mph (West)    
Max Wind Speed 17 mph    
Max Gust Speed -    
Visibility 4 miles    
Events Fog , Rain , Snow    
Averages and records for this station are not official NWS values.
T = Trace of Precipitation, MM = Missing Value Source: NWS Daily Summary

Daily Weather History Graph

Daily Weather History Graph

Search for Another Location

Airport or City:

Trip Planner

Search our weather history database for the weather conditions in past years. The results will help you decide how hot, cold, wet, or windy it might be!

Date:

Astronomy

Nov. 15, 2013 Rise Set
Actual Time 7:17 AM MST 5:06 PM MST
Civil Twilight 6:47 AM MST 5:36 PM MST
Nautical Twilight 6:13 AM MST 6:10 PM MST
Astronomical Twilight 5:40 AM MST 6:43 PM MST
Moon 4:06 PM MST (11/15) 5:15 AM MST (11/15)
Length of Visible Light 10h 49m
Length of Day
9h 49m
Waxing Gibbous, 97% of the Moon is Illuminated
Nov 15
Waxing Gibbous
Nov 17
Full
Nov 25
Last Quarter
Dec 2
New
Dec 9
First Quarter

Hourly Weather History & Observations

Time (MST) Temp. Windchill Dew Point Humidity Pressure Visibility Wind Dir Wind Speed Gust Speed Precip Events Conditions
12:51 AM 39.0 °F 32.8 °F 28.9 °F 67% 29.75 in 10.0 mi NNE 9.2 mph - N/A   Overcast
1:51 AM 39.0 °F 29.9 °F 33.1 °F 79% 29.77 in 10.0 mi North 17.3 mph - 0.00 in Rain Light Rain
2:41 AM 37.4 °F 31.4 °F 33.8 °F 87% 29.80 in 10.0 mi NNW 8.1 mph - 0.00 in Rain Light Rain
2:51 AM 37.0 °F 31.6 °F 34.0 °F 89% 29.77 in 10.0 mi NNW 6.9 mph - 0.01 in Rain Light Rain
3:51 AM 35.1 °F 30.1 °F 33.1 °F 92% 29.77 in 10.0 mi WNW 5.8 mph - 0.04 in   Overcast
4:04 AM 35.6 °F 31.7 °F 33.8 °F 93% 29.79 in 8.0 mi West 4.6 mph - 0.01 in Snow Light Snow
4:16 AM 33.8 °F 29.6 °F 32.0 °F 93% 29.78 in 5.0 mi WSW 4.6 mph - 0.01 in Snow Light Snow
4:24 AM 33.8 °F 28.6 °F 32.0 °F 93% 29.78 in 3.0 mi WSW 5.8 mph - 0.02 in Snow Light Snow
4:36 AM 33.8 °F 29.6 °F 32.0 °F 93% 29.78 in 2.0 mi SW 4.6 mph - 0.03 in Snow Light Snow
4:39 AM 33.8 °F 28.6 °F 32.0 °F 93% 29.78 in 1.8 mi SW 5.8 mph - 0.03 in Snow Light Snow
4:51 AM 33.1 °F 28.7 °F 32.0 °F 96% 29.77 in 1.8 mi SW 4.6 mph - 0.03 in Snow Light Snow
5:51 AM 33.1 °F - 32.0 °F 96% 29.78 in 1.0 mi Calm Calm - 0.06 in Snow Light Snow
6:02 AM 33.8 °F 30.8 °F 32.0 °F 93% 29.77 in 0.8 mi South 3.5 mph - 0.02 in Snow Light Snow
6:06 AM 33.8 °F - 32.0 °F 93% 29.77 in 0.8 mi Calm Calm - 0.02 in Snow Light Snow
6:11 AM 33.8 °F - 32.0 °F 93% 29.77 in 1.0 mi Calm Calm - 0.03 in Snow Light Snow
6:51 AM 33.1 °F - 32.0 °F 96% 29.77 in 1.2 mi Calm Calm - 0.06 in Snow Light Snow
7:07 AM 33.8 °F - 32.0 °F 93% 29.77 in 1.2 mi Calm Calm - 0.01 in Snow Light Snow
7:24 AM 33.8 °F - 32.0 °F 93% 29.77 in 1.5 mi Calm Calm - 0.02 in Snow Light Snow
7:30 AM 33.8 °F - 32.0 °F 93% 29.77 in 1.0 mi Calm Calm - 0.03 in Snow Light Snow
7:35 AM 33.8 °F - 32.0 °F 93% 29.77 in 0.5 mi Calm Calm - 0.03 in Fog , Snow Snow
7:51 AM 33.1 °F - 32.0 °F 96% 29.79 in 0.8 mi Calm Calm - 0.04 in Snow Light Snow
7:57 AM 33.8 °F - 32.0 °F 93% 29.77 in 0.8 mi Calm Calm - 0.00 in Snow Light Snow
8:03 AM 33.8 °F - 32.0 °F 93% 29.77 in 1.0 mi Calm Calm - 0.01 in Snow Light Snow
8:08 AM 33.8 °F - 32.0 °F 93% 29.77 in 0.8 mi Calm Calm - 0.01 in Snow Light Snow
8:23 AM 33.8 °F - 32.0 °F 93% 29.78 in 0.8 mi Calm Calm - 0.01 in Snow Light Snow
8:30 AM 33.8 °F - 30.2 °F 87% 29.78 in 0.8 mi Calm Calm - 0.02 in Snow Light Snow
8:51 AM 33.1 °F - 32.0 °F 96% 29.79 in 0.8 mi Calm Calm - 0.03 in Snow Light Snow
9:00 AM 33.8 °F - 32.0 °F 93% 29.78 in 1.0 mi Calm Calm - 0.00 in Snow Light Snow
9:10 AM 33.8 °F - 32.0 °F 93% 29.78 in 0.8 mi Calm Calm - 0.01 in Snow Light Snow
9:25 AM 33.8 °F - 32.0 °F 93% 29.78 in 0.5 mi Calm Calm - 0.03 in Fog , Snow Snow
9:37 AM 33.8 °F - 32.0 °F 93% 29.78 in 0.8 mi Calm Calm - 0.03 in Snow Light Snow
9:46 AM 33.8 °F - 32.0 °F 93% 29.79 in 1.0 mi Calm Calm - 0.04 in Snow Light Snow
9:51 AM 33.1 °F - 32.0 °F 96% 29.80 in 1.0 mi Calm Calm - 0.04 in Snow Light Snow
10:20 AM 33.8 °F 29.6 °F 32.0 °F 93% 29.79 in 2.5 mi WNW 4.6 mph - 0.00 in Snow Light Snow
10:26 AM 33.8 °F 29.6 °F 32.0 °F 93% 29.80 in 3.0 mi WNW 4.6 mph - 0.00 in Snow Light Snow
10:37 AM 33.8 °F 28.6 °F 30.2 °F 87% 29.80 in 2.5 mi NW 5.8 mph - 0.01 in Snow Light Snow
10:49 AM 33.8 °F 28.6 °F 32.0 °F 93% 29.80 in 1.8 mi NW 5.8 mph - 0.01 in Snow Light Snow
10:51 AM 33.1 °F 27.7 °F 32.0 °F 96% 29.82 in 1.8 mi NW 5.8 mph - 0.01 in Snow Light Snow
10:54 AM 33.8 °F 28.6 °F 32.0 °F 93% 29.80 in 2.0 mi NNW 5.8 mph - 0.00 in Snow Light Snow
11:03 AM 33.8 °F 29.6 °F 32.0 °F 93% 29.80 in 1.5 mi NNW 4.6 mph - 0.00 in Snow Light Snow
11:11 AM 33.8 °F - 32.0 °F 93% 29.80 in 0.8 mi Calm Calm - 0.01 in Snow Light Snow
11:16 AM 33.8 °F - 33.8 °F 100% 29.80 in 1.0 mi Calm Calm - 0.01 in Snow Light Snow
11:23 AM 33.8 °F - 33.8 °F 100% 29.80 in 2.5 mi Calm Calm - 0.01 in Snow Light Snow
11:29 AM 33.8 °F - 33.8 °F 100% 29.80 in 5.0 mi Calm Calm - 0.01 in   Overcast
11:51 AM 35.1 °F - 33.1 °F 92% 29.81 in 6.0 mi Calm Calm - 0.01 in   Overcast
12:51 PM 34.0 °F 28.0 °F 32.0 °F 92% 29.78 in 10.0 mi SW 6.9 mph - N/A   Overcast
1:51 PM 35.1 °F 32.2 °F 32.0 °F 89% 29.77 in 10.0 mi South 3.5 mph - N/A   Overcast
2:51 PM 37.0 °F 30.4 °F 32.0 °F 82% 29.74 in 10.0 mi SSW 9.2 mph - N/A   Scattered Clouds
3:51 PM 37.9 °F 32.1 °F 30.9 °F 76% 29.74 in 10.0 mi SSW 8.1 mph - N/A   Mostly Cloudy
4:51 PM 37.0 °F 33.3 °F 30.0 °F 76% 29.74 in 10.0 mi SE 4.6 mph - N/A   Overcast
5:51 PM 37.0 °F 34.5 °F 30.0 °F 76% 29.73 in 10.0 mi South 3.5 mph - N/A   Overcast
6:51 PM 33.1 °F 30.0 °F 28.9 °F 85% 29.74 in 10.0 mi NNW 3.5 mph - N/A   Overcast
7:51 PM 37.0 °F - 28.0 °F 70% 29.73 in 10.0 mi Calm Calm - N/A   Overcast
8:51 PM 36.0 °F 30.3 °F 28.0 °F 73% 29.71 in 10.0 mi South 6.9 mph - N/A   Clear
9:51 PM 30.9 °F - 26.1 °F 82% 29.72 in 10.0 mi Calm Calm - N/A   Mostly Cloudy
10:51 PM 30.9 °F 26.2 °F 26.1 °F 82% 29.71 in 10.0 mi West 4.6 mph - N/A   Mostly Cloudy
11:51 PM 28.9 °F - 25.0 °F 85% 29.69 in 10.0 mi Calm Calm - N/A   Mostly Cloudy